Total_Precipitation_Accumulation
1.53 1.55 1.47 1.70 1.81 1.87 1.94 1.95 1.86 1.74 1.69 1.51 1.51 1.55 1.59 1.45 1.59 1.77 2.29 2.79 3.44 4.34 4.52 4.14 3.86 3.77 3.54 3.47 3.72 3.76 3.82 3.92 3.89 3.84 3.83 4.20 4.30 3.74 3.60 3.60 3.61 4.04 4.49
1.34 1.56 1.46 1.48 1.62 1.84 1.98 1.96 1.89 1.94 1.90 1.69 1.68 1.73 1.70 1.64 1.67 1.74 1.98 2.09 2.35 3.08 3.86 4.28 4.40 4.23 3.85 3.65 3.66 3.74 3.93 3.95 3.89 3.76 3.66 3.83 3.99 3.62 3.55 3.64 3.65 3.97 4.34
1.27 1.51 1.45 1.36 1.40 1.57 1.75 1.99 2.07 2.09 1.88 1.81 1.83 1.82 1.70 1.68 1.69 1.87 1.94 2.03 1.97 2.16 2.79 3.35 3.91 4.13 4.22 4.05 3.73 3.59 3.83 3.86 3.77 3.67 3.67 3.67 3.84 3.72 3.66 3.74 3.66 3.84 4.02
1.07 1.30 1.40 1.33 1.35 1.55 1.80 2.08 2.29 2.35 2.15 2.11 2.16 2.06 1.81 1.77 1.72 1.84 1.91 2.04 2.17 1.94 2.00 2.22 2.72 3.38 3.99 4.15 4.11 3.91 3.97 3.87 3.60 3.50 3.38 3.31 3.57 3.72 3.81 3.80 3.67 3.74 3.84
1.00 1.25 1.49 1.52 1.52 1.72 1.87 1.87 2.15 2.32 2.42 2.33 2.16 2.04 1.96 1.94 1.92 1.86 1.99 2.01 2.12 2.05 1.88 1.64 1.75 2.30 3.09 3.61 3.91 3.98 4.21 4.08 3.70 3.51 3.13 2.94 3.14 3.44 3.80 3.53 3.44 3.48 3.70
1.23 1.45 1.71 1.73 1.80 1.89 2.02 2.25 2.55 2.55 2.48 2.51 2.24 2.00 1.88 1.91 2.00 2.11 2.07 2.06 2.15 1.97 1.79 1.65 1.62 1.64 2.28 2.88 3.26 3.70 4.06 4.14 3.85 3.75 3.33 2.88 2.90 3.19 3.60 3.42 3.27 3.32 3.56
1.42 1.65 1.84 2.05 2.18 2.09 2.13 2.42 2.75 2.85 2.61 2.46 2.58 2.47 2.27 2.05 2.06 2.04 2.02 2.08 2.14 2.08 1.98 1.93 1.88 1.76 1.90 2.20 2.50 3.07 3.59 3.92 3.97 3.90 3.62 3.20 3.00 3.08 3.27 3.17 3.05 3.27 3.58
1.51 1.53 1.81 1.99 2.08 2.23 2.27 2.38 2.72 3.06 2.79 2.50 2.79 3.26 3.07 2.84 2.27 1.91 2.04 2.07 2.18 2.19 2.13 2.00 2.02 1.93 1.93 2.10 1.88 2.09 2.73 3.39 3.89 3.98 3.76 3.49 3.29 3.08 3.16 3.08 2.94 3.02 3.24
1.85 1.81 1.86 2.00 2.09 2.30 2.47 2.49 2.57 2.94 2.97 2.70 2.68 3.35 3.42 3.28 3.01 2.42 2.04 2.10 2.26 2.35 2.38 2.29 2.14 2.08 1.97 2.08 1.90 1.65 1.97 2.43 3.18 3.71 3.93 3.73 3.54 3.26 3.18 3.12 3.07 3.10 3.09
2.16 2.17 2.19 2.30 2.24 2.24 2.35 2.33 2.33 2.60 2.96 2.99 2.77 2.60 2.60 2.80 3.27 3.03 2.41 2.23 2.25 2.25 2.39 2.25 2.25 2.29 2.20 2.14 2.01 1.67 1.51 1.72 2.45 3.32 3.91 3.84 3.68 3.53 3.35 3.24 3.10 3.05 3.01
2.81 2.77 2.68 2.52 2.31 2.26 2.33 2.38 2.40 2.52 2.65 2.82 2.80 2.60 2.53 2.50 2.49 2.85 2.85 2.57 2.33 2.19 2.26 2.30 2.33 2.35 2.34 2.27 2.19 1.80 1.45 1.33 1.73 2.63 3.39 3.67 3.66 3.60 3.56 3.47 3.24 3.03 2.82
2.82 2.76 2.56 2.28 2.12 2.08 2.17 2.34 2.36 2.45 2.46 2.55 2.52 2.36 2.35 2.39 2.44 2.68 2.71 2.65 2.60 2.26 2.07 2.10 2.16 2.23 2.15 2.14 2.02 2.05 1.65 1.37 1.40 1.88 2.49 3.00 3.37 3.64 3.66 3.75 3.54 3.22 2.94
2.17 2.18 2.17 2.13 2.04 1.95 2.01 2.24 2.34 2.41 2.42 2.40 2.32 2.22 2.24 2.14 2.24 2.57 2.80 2.70 2.56 2.27 2.09 1.93 1.97 2.01 1.86 1.93 2.03 2.21 1.86 1.60 1.47 1.56 1.87 2.24 2.62 3.09 3.54 3.89 3.98 3.80 3.58
1.97 1.98 2.00 2.03 1.99 1.93 1.94 2.07 2.20 2.30 2.31 2.26 2.19 2.31 2.32 2.11 2.20 2.29 2.48 2.76 2.64 2.42 2.28 2.00 1.85 1.74 1.77 1.80 2.03 2.26 1.71 1.65 1.53 1.44 1.48 1.70 2.05 2.38 2.79 3.32 3.78 3.90 3.84
1.60 1.71 1.82 1.89 1.84 1.81 1.82 1.97 2.11 2.13 2.20 2.29 2.32 2.32 2.34 2.26 2.27 2.29 2.48 2.70 2.78 2.62 2.47 2.17 1.94 1.73 1.76 1.83 2.09 1.94 1.66 1.68 1.57 1.46 1.46 1.49 1.66 1.95 2.21 2.39 2.71 2.90 2.98
1.47 1.50 1.49 1.52 1.51 1.54 1.54 1.63 1.79 1.88 1.90 2.00 2.05 2.11 2.13 2.12 2.24 2.24 2.37 2.57 2.64 2.63 2.54 2.25 2.05 1.92 1.92 1.87 2.04 1.85 1.77 1.95 1.75 1.55 1.46 1.48 1.52 1.66 1.79 1.89 1.99 2.07 2.08
1.18 1.21 1.15 1.17 1.27 1.30 1.24 1.31 1.41 1.48 1.57 1.67 1.69 1.74 1.81 1.84 2.03 2.06 2.19 2.37 2.49 2.51 2.33 2.17 2.12 2.06 2.03 2.08 2.07 1.93 1.77 1.78 1.79 1.65 1.48 1.45 1.48 1.55 1.63 1.77 1.83 1.80 1.77
0.94 0.93 0.89 0.89 1.00 1.14 1.19 1.26 1.32 1.30 1.37 1.49 1.59 1.60 1.58 1.62 1.75 1.83 1.95 2.07 2.27 2.40 2.33 2.24 2.22 2.04 1.87 1.94 2.07 2.09 1.97 1.85 1.91 1.96 1.80 1.69 1.67 1.64 1.60 1.70 1.77 1.75 1.69
0.91 0.88 0.81 0.84 0.90 0.98 1.15 1.23 1.24 1.22 1.22 1.24 1.31 1.34 1.36 1.47 1.63 1.69 1.74 1.90 2.09 2.20 2.33 2.29 2.27 2.11 1.91 1.85 1.98 1.95 1.94 2.13 2.06 2.13 2.25 2.12 1.94 1.83 1.76 1.74 1.74 1.68 1.60
0.96 0.93 0.84 0.81 0.90 1.01 1.10 1.22 1.22 1.15 1.13 1.16 1.21 1.20 1.15 1.20 1.36 1.53 1.63 1.85 2.07 2.27 2.39 2.36 2.37 2.24 2.12 1.98 2.00 2.09 2.12 2.18 2.23 2.01 2.07 2.17 2.21 2.10 1.99 1.84 1.81 1.78 1.74
0.95 0.93 0.91 0.92 0.97 1.00 1.02 1.19 1.20 1.13 1.13 1.09 1.11 1.15 1.13 1.17 1.23 1.33 1.34 1.55 1.81 2.13 2.31 2.39 2.40 2.36 2.23 2.10 1.95 2.07 2.14 2.26 2.39 2.35 2.22 2.11 2.16 2.02 1.97 1.97 1.89 1.87 1.89
0.99 0.96 0.94 0.97 0.96 0.88 1.11 1.23 1.22 1.20 1.20 1.22 1.16 1.13 1.10 1.11 1.23 1.27 1.27 1.32 1.52 1.74 1.94 2.04 2.07 2.08 2.07 2.08 2.17 2.18 2.15 2.18 2.30 2.33 2.19 2.29 2.34 2.29 2.06 1.94 1.98 1.94 1.94
0.94 0.93 0.93 0.92 0.89 0.90 0.99 0.99 1.07 1.14 1.25 1.25 1.16 1.21 1.22 1.11 1.19 1.21 1.31 1.30 1.27 1.35 1.56 1.75 1.80 1.77 1.84 1.86 2.13 2.17 2.16 2.16 2.09 2.16 2.07 2.22 2.21 2.22 2.11 2.09 2.18 1.99 1.96
0.84 0.89 0.98 0.98 0.88 0.81 0.89 0.86 0.93 1.00 1.13 1.19 1.13 1.17 1.38 1.38 1.28 1.30 1.36 1.41 1.29 1.15 1.22 1.32 1.49 1.63 1.68 1.85 2.17 2.40 2.35 2.11 2.01 2.02 1.95 2.10 2.08 2.07 2.01 1.96 2.10 2.04 1.93
0.69 0.72 0.78 0.86 0.84 0.82 0.87 0.88 0.91 0.93 1.01 1.02 1.07 1.17 1.28 1.36 1.36 1.39 1.30 1.33 1.36 1.22 1.21 1.32 1.35 1.48 1.66 1.82 2.08 2.37 2.45 2.33 2.12 1.98 1.84 1.87 1.96 2.05 2.11 1.99 1.94 2.04 2.01
0.67 0.70 0.72 0.70 0.69 0.73 0.83 0.85 0.93 0.91 0.94 0.88 0.94 1.14 1.36 1.31 1.32 1.36 1.30 1.36 1.45 1.27 1.20 1.32 1.33 1.39 1.47 1.70 2.09 2.26 2.41 2.39 2.25 2.16 1.94 1.91 1.97 2.09 2.41 2.29 2.02 1.92 1.94